Luis Sánchez

Recruteur en chef - Racing Club
20 Janv 2028
Jeudi
Processus

Personnalité

Adaptabilité (3) Ambition (19) Controverse (16) Loyauté (2) Pression (11) Professionnalisme (15) Sportivité (5) Tempérament (16)

Profil

Style d'entraînement Démocratique
Diplôme National A
Détermination 5
Gestion des joueurs 13
Motivation 13
Discipline 7
Satisfaction professionnelle
83%
Fatigue
0%
Rôle Recruteur en chef
Salaire 20.8K p/s
Contrat 14.03.2028

Performance

Comportement Bon
Efficacité de l'entraînement
48%
Développement des joueurs
70%
Prévention des blessures
65%
Mise en place tactique
75%

Événements récents

A évalué un joueur maintenant
A participé à une réunion de recrutement maintenant
A recommandé une cible de transfert maintenant
A recommandé une cible de transfert maintenant
A participé à une réunion de recrutement maintenant
Négociation de contrat entamée maintenant
En formation continue maintenant
Négociation de contrat entamée maintenant

Suivi en cours

162
Joueur Club Statut Capacité Confiance Observé Dernière observation Dernier vote
Iñaki Larthirigoyen San Telmo Actif 124 / 121 40% 1 19.01.2028 -
Tomás Ferreyra Defensores Unidos Actif 110 / 104 40% 1 19.01.2028 -
Lautaro Villegas Banfield Actif 113 / 106 40% 1 19.01.2028 -
Emanuel Mammana Vélez Actif 129 / 124 40% 1 17.01.2028 -
Anton Stach Leeds United Actif 155 / 152 40% 1 17.01.2028 -
Gilberto Mora Atlético Madrid Actif 142 / 147 40% 1 17.01.2028 -
Tomás O'Connor Gimnasia y Esgrima Actif 122 / 117 40% 1 17.01.2028 -
Elías Báez Atlanta United FC Actif 127 / 126 40% 1 17.01.2028 -
Santiago González Tigre Actif 132 / 134 40% 4 16.01.2028 -
Álex Marchal Real Sociedad Actif 117 / 125 40% 2 16.01.2028 -
Valentín Serrano Arsenal Actif 111 / 119 40% 1 16.01.2028 -
Christian Krasnodar Actif 143 / 136 40% 7 13.01.2028 -
Matteo Prati Cagliari Actif 137 / 128 40% 2 13.01.2028 -
Angeliño AS Roma Actif 150 / 141 40% 2 13.01.2028 -
Youssouf Fofana AC Milan Actif 157 / 166 40% 1 13.01.2028 -
Agustín Villalobos Godoy Cruz Actif 107 / 106 40% 1 13.01.2028 -
Tomás Silva Platense Actif 127 / 134 40% 1 13.01.2028 -
Rubens Dinamo Moscow Actif 131 / 131 40% 10 11.01.2028 -
Óscar Mingueza Crystal Palace Actif 155 / 161 40% 2 11.01.2028 -
Martín Garay Tigre Actif 127 / 121 40% 1 11.01.2028 -
Ramiro Hernandes Belgrano Actif 119 / 131 40% 1 11.01.2028 -
Tomás Aranda Boca Juniors Actif 113 / 114 40% 1 11.01.2028 -
José Mercado Union Magdalena Actif 107 / 110 40% 1 10.01.2028 -
Assane Diao Lazio Actif 150 / 147 40% 1 10.01.2028 -
Samuel Lucero Defensa y Justicia Actif 117 / 121 40% 1 09.01.2028 -
Tomás Porra Barracas Central Actif 119 / 118 40% 1 09.01.2028 Plus d'infos
Matías Bergara Nueva Chicago Actif 111 / 113 40% 1 09.01.2028 -
Peru Nolaskoain Eibar Actif 125 / 112 40% 1 07.01.2028 -
Pablo Ibañez Alavés Actif 138 / 144 40% 1 07.01.2028 -
Sheyko Studer Independiente Rivadavia Actif 128 / 124 40% 1 06.01.2028 -
Adrià Altimira Deportivo La Coruña Actif 134 / 126 40% 1 06.01.2028 -
Nicolás Tripichio San Lorenzo Actif 127 / 118 40% 1 05.01.2028 -
Mateo Mendoza Godoy Cruz Actif 127 / 130 40% 2 04.01.2028 -
Lucas Souto Defensa y Justicia Actif 130 / 123 40% 1 04.01.2028 -
Julio Alonso Huesca Actif 122 / 116 40% 1 03.01.2028 -
Wílder Viera Instituto Perdu 110 / 116 83% 1 20.12.2027 Approuver
José Luis Palomino Talleres Perdu 117 / 126 83% 1 01.12.2027 -
Donyell Malen AS Roma Actif 150 / 145 40% 1 01.12.2027 -
Lorenzo Lucca Napoli Actif 152 / 148 40% 1 01.12.2027 -
Levi Garcia Spartak Moscow Actif 143 / 137 40% 1 01.12.2027 -
Giacomo Raspadori Atalanta Actif 158 / 158 40% 1 30.11.2027 -
Juan Brunetta FC Copenhagen Perdu 140 / 140 40% 1 30.11.2027 -
Ollie Watkins Estudiantes Actif 157 / 151 40% 1 30.11.2027 -
Luca Babino Huracán Actif 108 / 123 83% 1 28.06.2027 Approuver
Facundo Bernal Betis Actif 134 / 130 40% 8 29.05.2027 -
Gustavo Mantuan Zenit Actif 130 / 132 40% 10 28.05.2027 -
Christ Inao Oulaï Fiorentina Actif 137 / 133 40% 5 27.05.2027 -
Trai Hume Sunderland Actif 134 / 137 40% 5 25.05.2027 -
Victor Parada Spartak Moscow Actif 125 / 119 40% 8 23.05.2027 -
Nicolò Savona Nottingham Forest Actif 142 / 141 40% 3 20.05.2027 -
Bafodé Diakité Bournemouth Actif 139 / 151 40% 1 17.05.2027 -
Danil Glebov Dinamo Moscow Actif 134 / 127 40% 7 14.05.2027 -
Josh King Chelsea Actif 137 / 134 40% 6 08.05.2027 -
Alexandr Chernikov Krasnodar Actif 132 / 120 40% 9 27.04.2027 -
Caspar Jander Southampton Actif 129 / 140 40% 1 18.04.2027 -
Dean Huijsen Villarreal Actif 142 / 152 40% 2 06.04.2027 -
Samú Al-Nassr Actif 141 / 136 40% 8 05.04.2027 -
Zaydou Youssouf Al-Fateh Actif 133 / 120 40% 4 18.03.2027 -
Mohammed Abu Al-Shamat Al-Qadisiyah Actif 129 / 121 40% 2 15.03.2027 -
Dion Lopy Al-Ittihad Actif 133 / 135 40% 4 10.03.2027 -
Valentin Atangana Al-Ahli Actif 136 / 142 40% 2 05.03.2027 -
Alexandr Siljanov Lokomotiv Moscow Actif 131 / 138 40% 3 26.02.2027 -
Mahamadou Doumbia Al-Ittihad Actif 134 / 127 40% 2 23.02.2027 -
Ali Majrashi Al-Ahli Actif 132 / 133 40% 1 22.02.2027 -
Matvey Kislyak CSKA Moscow Actif 138 / 135 40% 3 20.02.2027 -
Rahim Ibrahim Slovan Bratislava Actif 130 / 123 40% 4 18.02.2027 -
Gastón Álvarez Al-Qadisiyah Actif 133 / 124 40% 1 06.02.2027 -
Bradley Tau SuperSport United Actif 119 / 115 40% 2 29.01.2027 -
Eric Meza Estudiantes Actif 128 / 118 40% 1 28.01.2027 -
Pedro Bicalho Qarabag Actif 124 / 136 40% 1 28.01.2027 -
Ayrton Costa Boca Juniors Actif 127 / 136 40% 1 15.01.2027 -
Nail Umyarov Spartak Moscow Actif 121 / 120 40% 1 11.01.2027 -
Francisco Álvarez Argentinos Juniors Actif 125 / 116 40% 3 06.01.2027 -
Damián Fernández Defensa y Justicia Actif 126 / 122 40% 1 06.01.2027 -
Filip Kaloč Ludogorets Actif 132 / 120 40% 1 02.01.2027 -
Jelle Bataille Maccabi Haifa Actif 124 / 116 40% 1 01.01.2027 -
Franco Ibarra Rosario Central Actif 134 / 123 40% 1 28.12.2026 -
Santiago Núñez Estudiantes Actif 122 / 133 40% 1 27.12.2026 -
Mojmír Chytil NK Maribor Actif 129 / 140 40% 1 14.12.2026 -
Manfred Ugalde Spartak Moscow Actif 128 / 132 40% 1 14.12.2026 -
Felipe Peña Biafore Lanús Actif 125 / 135 40% 1 06.12.2026 -
Toni Fruk KV Mechelen Perdu 132 / 133 66% 1 01.12.2026 Approuver
Galeno Al-Ahli Actif 148 / 150 40% 1 30.11.2026 -
Breel Embolo Atlanta United FC Actif 140 / 138 40% 8 29.11.2026 -
Renato Tapia Al Wasl Actif 140 / 129 40% 2 29.11.2026 -
Jhon Jhon Zenit Actif 130 / 122 40% 3 28.11.2026 -
Sergej Milinković-Savić Al-Hilal Actif 163 / 155 40% 3 27.11.2026 -
Fabián Paris Saint-Germain Actif 159 / 161 40% 5 25.11.2026 -
Rúben Neves Al-Hilal Actif 145 / 145 40% 4 25.11.2026 -
Crysencio Summerville Al-Hilal Actif 137 / 150 40% 3 25.11.2026 -
Oussama Idrissi Pachuca Actif 136 / 131 40% 2 24.11.2026 -
Maxim Glushenkov Zenit Actif 145 / 142 40% 3 23.11.2026 -
Ruben van Bommel Ferencvaros Actif 132 / 139 40% 1 23.11.2026 -
Yves Bissouma Tottenham Actif 148 / 138 40% 3 20.11.2026 -
Ryan Gauld Vancouver Whitecaps Actif 134 / 141 40% 4 17.11.2026 -
Petar Stanić Ludogorets Actif 137 / 128 40% 1 17.11.2026 -
Allan Saint-Maximin Charlotte Football Club Actif 144 / 147 40% 4 13.11.2026 -
Romano Schmid Frosinone Actif 148 / 130 40% 2 12.11.2026 -
Esequiel Barco Spartak Moscow Actif 139 / 129 40% 1 12.11.2026 -
Musa Barrow Al-Khaleej Actif 130 / 146 40% 4 11.11.2026 -
Oscar Al-Taawoun Actif 141 / 139 40% 6 10.11.2026 -
Mauro Arambarri River Plate Actif 158 / 160 40% 7 09.11.2026 -
Houssem Aouar Al-Ittihad Actif 146 / 137 40% 3 08.11.2026 -
Matt Freese New York City Actif 134 / 133 40% 5 07.11.2026 -
Pedrinho Shakhtar Actif 138 / 131 40% 3 05.11.2026 -
Zack Steffen Spartak Moscow Actif 136 / 119 40% 1 05.11.2026 -
Jonathan Bamba Chicago Fire Actif 136 / 129 40% 4 29.10.2026 -
Senny Mayulu Paris Saint-Germain Actif 145 / 135 40% 2 27.10.2026 -
Álvaro Fernández Mallorca Actif 139 / 141 40% 1 26.10.2026 -
Leon Bailey Olympiacos Actif 144 / 139 40% 2 24.10.2026 -
Sergio Reguilón Inter Miami CF Actif 133 / 142 40% 6 23.10.2026 -
Nikola Vasilj Al-Diriyah Actif 139 / 142 40% 3 22.10.2026 -
Keisuke Osako Sanfrecce Hiroshima Actif 139 / 128 40% 3 22.10.2026 -
Ryosuke Kojima Kashiwa Reysol Actif 133 / 132 40% 1 22.10.2026 -
Gabriel Jesus Barcelona Actif 157 / 153 40% 7 16.10.2026 -
Kerem Aktürkoğlu Fenerbahce Actif 147 / 147 40% 5 14.10.2026 -
Barış Alper Yılmaz Galatasaray Actif 143 / 150 40% 3 14.10.2026 -
Francesco Pio Esposito Inter Actif 141 / 156 40% 1 14.10.2026 -
Rômulo RB Leipzig Actif 140 / 143 40% 1 14.10.2026 -
Tomoki Hayakawa Kashima Antlers Actif 139 / 132 40% 1 09.10.2026 -
Philip Billing FC Midtjylland Actif 130 / 127 40% 1 07.10.2026 -
Petar Musa Adana Demirspor Actif 138 / 125 40% 1 07.10.2026 -
Rubén Blanco Yokohama F. Marinos Actif 137 / 126 40% 2 06.10.2026 -
Brais Méndez Columbus Crew Actif 147 / 154 40% 2 01.10.2026 -
Eduard Spertsyan Al-Ahli Actif 147 / 135 40% 2 29.09.2026 -
Jesús Angulo Tigres Actif 137 / 131 40% 3 20.09.2026 -
Orbelín Pineda Monterrey Actif 140 / 143 40% 1 20.09.2026 -
Erick Reyes Toluca Actif 140 / 138 40% 1 20.09.2026 -
Maxim De Cuyper Brighton Actif 136 / 135 40% 1 18.09.2026 -
Luis Romo Guadalajara Actif 137 / 134 40% 3 17.09.2026 -
Leroy Sané Galatasaray Actif 154 / 144 40% 4 17.09.2026 -
Patrick Berg Bodo/Glimt Actif 138 / 147 40% 1 10.09.2026 -
Richard Ledezma Guadalajara Actif 132 / 135 40% 1 06.09.2026 -
Václav Černý Besiktas Actif 135 / 137 40% 1 02.09.2026 -
Alejandro Zendejas Club America Actif 135 / 138 40% 4 29.08.2026 -
Rasmus Kristensen FC Midtjylland Actif 135 / 133 40% 1 29.08.2026 -
Carlos Rodríguez Cruz Azul Actif 132 / 129 40% 3 27.08.2026 -
Thorgan Witsel KV Oostende Actif 130 / 147 40% 1 27.08.2026 -
Luca Duarte Arsenal Actif 86 / 91 42% 1 / 1m 26.08.2026 -
Fernando Monetti Ferro Carril Oeste Actif 125 / 125 30% 1 / 1m 26.08.2026 -
Predrag Rajković Racing Genk Actif 142 / 145 40% 1 23.08.2026 -
Wendel Zenit Actif 144 / 153 40% 1 20.08.2026 -
Alan Sosa Tigre Actif 120 / 120 30% 1 / 1m 19.08.2026 -
Danilo Ruiz Díaz Agropecuario Argentino Actif 116 / 119 52% 1 / 1m 19.08.2026 -
Franco Aguirre San Telmo Actif 105 / 105 30% 1 / 1m 19.08.2026 -
Facundo De La Vega Aldosivi Actif 103 / 106 52% 1 / 1m 19.08.2026 -
Tobias Canale Almagro Actif 84 / 89 30% 1 / 1m 19.08.2026 -
Uriel La Roza Defensa y Justicia Actif 111 / 116 52% 1 / 1m 19.08.2026 -
Nahuel Denis Gimnasia y Esgrima Actif 98 / 101 30% 1 / 1m 19.08.2026 -
Christian Tielemans KV Oostende Actif 145 / 151 40% 1 18.08.2026 -
Lucas Torreira Galatasaray Actif 148 / 148 40% 1 18.08.2026 -
João Palhinha Benfica Actif 148 / 159 40% 1 14.08.2026 -
Stanislav Lobotka Galatasaray Actif 160 / 152 40% 1 13.08.2026 -
João Gomes Aston Villa Actif 140 / 127 40% 1 11.08.2026 -
Ricardo Horta Braga Actif 154 / 160 40% 1 10.08.2026 -
Jan Bednarek Porto Actif 150 / 139 40% 1 10.08.2026 -
Shota Fukuoka Gamba Osaka Actif 129 / 125 40% 1 09.08.2026 -
Kasper Dolberg Ajax Actif 140 / 148 40% 1 07.08.2026 -
Kyle Walker-Peters West Ham United Actif 141 / 139 40% 1 04.08.2026 -
Álex Berenguer Athletic Bilbao Actif 147 / 141 40% 1 02.08.2026 -
Marcos Llorente Atlético Madrid Actif 150 / 152 40% 1 02.08.2026 -
Nikola Vlašić Torino Actif 149 / 137 40% 1 02.08.2026 -